Weather History for Nantucket, MA

Change the Weather History Date:

Thursday, January 23, 2014

  Actual Average Record
Temperature  
Mean Temperature 16 °F -  
Max Temperature 21 °F 39 °F 51 °F (1952)
Min Temperature 10 °F 24 °F -1 °F (1970)
Degree Days  
Heating Degree Days 50    
Moisture  
Dew Point 4 °F    
Average Humidity 61    
Maximum Humidity 80    
Minimum Humidity 43    
Precipitation  
Precipitation 0.00 in - - ()
Sea Level Pressure  
Sea Level Pressure 30.03 in    
Wind  
Wind Speed 12 mph (WNW)    
Max Wind Speed 22 mph    
Max Gust Speed 28 mph    
Visibility 10 miles    
Events Snow    
Averages and records for this station are not official NWS values.
T = Trace of Precipitation, MM = Missing Value Source: NWS Daily Summary

Daily Weather History Graph

Daily Weather History Graph

Search for Another Location

Airport:

Trip Planner

Search our weather history database for the weather conditions in past years. The results will help you decide how hot, cold, wet, or windy it might be!

Date:

Astronomy

Jan. 23, 2014 Rise Set
Actual Time 6:59 AM EST 4:45 PM EST
Civil Twilight 6:29 AM EST 5:15 PM EST
Nautical Twilight 5:55 AM EST 5:49 PM EST
Astronomical Twilight 5:22 AM EST 6:21 PM EST
Moon No Moon Rise 10:27 AM EST (1/23)
Length of Visible Light 10h 46m
Length of Day
9h 46m
Waning Gibbous, 55% of the Moon is Illuminated
Jan 23
Waning Gibbous
Jan 24
Last Quarter
Jan 30
New
Feb 6
First Quarter
Feb 14
Full

Hourly Weather History & Observations

Time (EST) Temp. Windchill Dew Point Humidity Pressure Visibility Wind Dir Wind Speed Gust Speed Precip Events Conditions
12:53 AM 15.1 °F 1.8 °F 5.0 °F 64% 29.86 in 9.0 mi NW 11.5 mph - 0.00 in Snow Light Snow
1:53 AM 14.0 °F 2.0 °F 6.1 °F 71% 29.88 in 9.0 mi NW 9.2 mph - 0.00 in   Clear
2:53 AM 12.9 °F 1.6 °F 6.1 °F 74% 29.92 in 10.0 mi WNW 8.1 mph - 0.00 in   Clear
3:53 AM 10.0 °F -0.9 °F 3.9 °F 76% 29.94 in 10.0 mi WNW 6.9 mph - N/A   Clear
4:53 AM 10.0 °F 0.4 °F 5.0 °F 80% 29.94 in 10.0 mi West 5.8 mph - N/A   Scattered Clouds
5:00 AM 10.4 °F -0.4 °F 3.2 °F 73% 29.94 in 10.0 mi West 6.9 mph - N/A   Mostly Cloudy
5:53 AM 12.0 °F 1.5 °F 6.1 °F 77% 29.97 in 10.0 mi West 6.9 mph - N/A   Overcast
6:53 AM 12.9 °F 2.6 °F 7.0 °F 77% 29.99 in 10.0 mi WNW 6.9 mph - N/A   Mostly Cloudy
7:53 AM 14.0 °F 3.9 °F 7.0 °F 74% 30.01 in 10.0 mi West 6.9 mph - N/A   Partly Cloudy
8:53 AM 14.0 °F -0.2 °F 5.0 °F 67% 30.01 in 10.0 mi WNW 12.7 mph - N/A   Partly Cloudy
9:53 AM 14.0 °F -0.8 °F 1.9 °F 59% 30.04 in 10.0 mi West 13.8 mph - N/A   Partly Cloudy
10:53 AM 16.0 °F 2.3 °F 3.9 °F 59% 30.04 in 10.0 mi West 12.7 mph - N/A   Overcast
11:53 AM 19.0 °F 4.5 °F 6.1 °F 57% 30.01 in 10.0 mi WNW 16.1 mph - N/A   Scattered Clouds
12:53 PM 19.9 °F 4.8 °F 6.1 °F 55% 30.01 in 10.0 mi West 18.4 mph 24.2 mph N/A   Clear
1:53 PM 21.9 °F 7.8 °F 9.0 °F 58% 30.02 in 10.0 mi West 17.3 mph 25.3 mph N/A   Scattered Clouds
2:53 PM 21.9 °F 7.8 °F 8.1 °F 55% 30.02 in 10.0 mi West 17.3 mph - N/A   Scattered Clouds
3:53 PM 21.0 °F 6.2 °F 8.1 °F 57% 30.04 in 10.0 mi West 18.4 mph 26.5 mph N/A   Overcast
4:53 PM 21.0 °F 5.0 °F 9.0 °F 60% 30.05 in 10.0 mi West 21.9 mph 27.6 mph N/A   Overcast
5:53 PM 19.9 °F 5.2 °F 3.9 °F 50% 30.07 in 10.0 mi West 17.3 mph 27.6 mph N/A   Partly Cloudy
6:53 PM 19.0 °F 4.5 °F 1.0 °F 46% 30.10 in 10.0 mi WNW 16.1 mph - N/A   Clear
7:53 PM 18.0 °F 4.2 °F -0.9 °F 44% 30.12 in 10.0 mi WNW 13.8 mph - N/A   Clear
8:53 PM 17.1 °F 2.0 °F -0.9 °F 45% 30.14 in 10.0 mi WNW 16.1 mph 26.5 mph N/A   Clear
9:53 PM 17.1 °F 1.5 °F -2.0 °F 43% 30.17 in 10.0 mi West 17.3 mph 26.5 mph N/A   Clear
10:53 PM 16.0 °F 1.1 °F -2.0 °F 45% 30.18 in 10.0 mi WNW 15.0 mph - N/A   Clear
11:53 PM 15.1 °F 0.5 °F -2.0 °F 47% 30.17 in 10.0 mi WNW 13.8 mph 21.9 mph N/A   Clear